CAPE
0 0 0 0 0 0 0 0 0 0 0 0 0 0 0 0 0 0 15 53 74 45 0 0 0 0 0 0 0 0 0 0 0 0 0 0 0 0 0 0 0 0 104 261
0 0 0 0 0 0 0 0 0 0 0 0 0 0 0 0 0 0 2 76 81 33 85 84 19 12 0 0 0 0 0 0 1 0 0 0 0 0 0 0 0 14 85 246
0 0 0 0 0 0 0 0 0 0 0 0 0 0 0 0 0 0 0 0 1 62 45 0 56 22 0 0 0 0 0 0 0 0 1 0 0 2 0 84 92 99 123 333
0 0 0 0 0 0 0 0 0 0 0 0 0 0 0 0 0 0 0 0 0 0 66 64 25 2 25 0 0 0 0 0 0 0 0 0 0 40 25 41 145 130 162 477
2 0 0 0 0 0 0 0 0 0 0 0 0 0 0 0 0 0 0 0 0 0 0 0 0 0 0 0 0 0 0 0 0 10 0 12 121 163 196 19 77 226 289 284
1 1 0 0 0 0 0 0 0 0 0 0 0 0 0 0 0 0 0 0 0 0 0 0 0 0 0 0 0 0 0 0 0 21 0 0 145 165 276 430 255 323 386 355
1 1 1 1 0 0 0 0 0 0 0 0 0 0 0 0 0 0 0 0 0 0 0 0 0 0 0 0 0 0 0 0 0 0 0 1 13 122 152 371 200 479 265 527
1 1 1 1 1 0 0 0 0 0 0 0 0 0 0 0 0 0 0 0 0 0 0 0 0 0 0 0 0 0 0 0 0 0 0 0 84 238 617 530 395 726 384 641
1 2 1 1 1 0 0 0 0 0 0 0 0 0 0 0 0 0 0 0 0 0 0 0 0 0 0 0 0 0 0 0 0 0 0 0 1 244 433 838 389 594 894 1009
2 1 1 1 1 1 0 0 0 0 0 0 0 0 0 0 0 0 0 0 0 0 0 0 0 0 0 0 0 0 0 0 0 0 0 0 0 67 137 712 311 791 1073 1226
2 1 1 1 1 0 0 0 0 0 0 0 0 0 0 0 0 0 0 0 0 0 0 0 0 0 0 0 0 0 0 0 0 0 0 0 47 163 341 174 128 450 1175 1295
2 1 1 1 3 0 1 0 0 0 0 0 0 0 0 0 0 0 0 0 0 0 0 0 0 0 0 0 0 0 18 8 100 105 33 25 28 54 62 234 509 649 1271 1347
5 4 1 10 4 0 1 0 0 0 0 0 0 0 0 0 0 0 0 0 0 0 0 0 0 0 0 0 0 0 0 0 101 47 32 52 53 126 179 243 286 297 573 894
21 19 15 8 0 0 1 0 0 0 0 0 0 0 0 0 0 0 0 0 0 0 0 0 0 0 0 0 0 0 0 0 3 0 2 2 19 85 130 46 15 5 48 134
20 7 2 0 0 0 0 0 0 0 0 0 0 0 0 0 0 0 0 0 0 0 0 0 0 0 0 0 0 0 0 0 0 0 8 31 34 30 5 34 26 3 0 0
2 13 1 0 0 0 0 0 1 1 0 0 0 0 0 0 0 0 0 0 0 0 0 0 0 0 0 0 0 0 0 0 0 0 0 0 0 0 0 0 0 0 0 0
0 0 2 0 0 0 0 1 1 0 0 0 0 0 0 0 0 0 0 0 0 0 0 0 0 0 0 0 0 0 0 0 0 0 0 0 0 0 0 0 0 0 0 0
0 0 0 0 0 0 0 0 0 0 0 1 0 0 0 0 0 0 0 0 0 0 0 0 0 0 0 0 0 0 0 0 0 0 0 0 0 0 0 0 0 0 0 0
0 0 0 0 0 1 0 0 0 0 2 11 2 0 0 0 0 0 0 0 0 0 0 0 0 0 0 0 0 0 0 0 0 0 0 0 0 0 0 0 0 0 0 0
20 0 0 8 0 0 1 0 0 2 2 1 7 0 0 0 0 0 0 0 0 0 0 0 0 0 0 0 0 0 0 0 0 0 0 0 0 0 0 0 0 0 0 0
7 1 1 0 0 8 0 10 5 10 22 2 11 7 0 0 0 0 0 0 0 0 0 0 0 0 0 0 0 0 0 0 0 0 0 0 0 0 0 0 0 0 0 0
4 1 0 10 63 19 12 4 4 0 10 10 9 0 0 0 0 0 0 0 0 0 0 0 0 0 0 0 0 0 0 0 0 0 0 0 0 0 0 0 0 0 0 0
8 23 44 36 44 30 2 1 0 2 0 18 3 0 0 0 0 0 0 0 4 0 0 0 0 0 0 0 0 0 0 0 0 0 0 0 0 0 0 0 0 0 0 0
15 38 5 15 19 0 1 0 0 0 0 2 9 4 3 2 0 0 0 0 0 3 14 1 0 0 0 0 0 0 0 0 0 0 0 0 0 0 0 0 0 0 0 0
12 19 1 0 1 0 0 0 0 0 1 2 18 1 5 1 1 3 2 1 0 0 0 0 0 0 0 0 0 0 0 0 0 0 0 0 0 0 0 0 0 0 0 0
4 3 4 17 6 23 16 2 0 0 0 16 9 10 1 18 15 15 10 15 6 0 0 0 0 0 0 0 0 0 0 0 0 0 0 0 0 0 0 0 0 0 0 0
5 3 4 6 15 24 30 0 5 4 12 2 2 13 7 0 2 7 1 0 0 0 0 0 0 0 0 0 0 0 0 0 0 0 0 0 0 0 0 0 0 0 0 0
CIN
-0 -0 -0 -0 -0 -0 -0 -0 -0 -0 -0 -0 -0 -0 -0 -0 -0 -0 -157 -187 -180 -157 -0 -0 -0 -0 -0 -0 -0 -0 -0 -0 -0 -0 -0 -0 -0 -0 -0 -0 -0 -0 -78 -48
-0 -0 -0 -0 -0 -0 -0 -0 -0 -0 -0 -0 -0 -0 -0 -0 -0 -0 -112 -145 -209 -297 -170 -71 -150 -163 -0 -0 -0 -0 -0 -3 -4 -5 -0 -0 -0 -0 -0 -0 -0 -31 -25 -44
-0 -0 -0 -0 -0 -0 -0 -0 -0 -0 -0 -0 -0 -0 -0 -0 -0 -0 -0 -0 -73 -185 -178 -0 -130 -123 -0 -0 -0 -0 -0 -0 -0 -0 -10 -0 -0 -65 -0 -100 -25 -42 -39 -84
-0 -0 -0 -0 -0 -0 -0 -0 -0 -0 -0 -0 -0 -0 -0 -0 -0 -0 -0 -0 -0 -0 -109 -110 -131 -150 -117 -0 -0 -0 -0 -0 -0 -0 -0 -0 -0 -111 -131 -84 -66 -11 -85 -57
-0 -0 -0 -0 -0 -0 -0 -0 -0 -0 -0 -0 -0 -0 -0 -0 -0 -0 -0 -0 -0 -0 -0 -0 -0 -0 -0 -0 -0 -0 -0 -0 -0 -91 -0 -77 -83 -125 -146 -176 -151 -114 -107 -112
-0 -0 -0 -0 -0 -0 -0 -0 -0 -0 -0 -0 -0 -0 -0 -0 -0 -0 -0 -0 -0 -0 -0 -0 -0 -0 -0 -0 -0 -0 -0 -0 -0 -68 -0 -20 -41 -82 -109 -121 -192 -133 -23 -104
-0 -0 -0 -0 -0 -0 -0 -0 -0 -0 -0 -0 -0 -0 -0 -0 -0 -0 -0 -0 -0 -0 -0 -0 -0 -0 -0 -0 -0 -0 -0 -0 -0 -0 -0 -52 -56 -240 -214 -116 -179 -204 -185 -201
-0 -0 -0 -0 -0 -0 -0 -0 -0 -0 -0 -0 -0 -0 -0 -0 -0 -0 -0 -0 -0 -0 -0 -0 -0 -0 -0 -0 -0 -0 -0 -0 -0 -0 -0 -0 -34 -111 -94 -64 -64 -164 -146 -167
-0 -0 -0 -0 -0 -0 -0 -0 -0 -0 -0 -0 -0 -0 -0 -0 -0 -0 -0 -0 -0 -0 -0 -0 -0 -0 -0 -0 -0 -0 -0 -0 -0 -0 -0 -0 -9 -151 -203 -142 -19 -156 -115 -117
-0 -0 -0 -0 -0 -0 -0 -0 -0 -0 -0 -0 -0 -0 -0 -0 -0 -0 -0 -0 -0 -0 -0 -0 -0 -0 -0 -0 -0 -0 -0 -0 -0 -0 -0 -0 -0 -186 -194 -15 -31 -123 -110 -114
-0 -0 -0 -1 -0 -0 -0 -0 -0 -0 -0 -0 -0 -0 -0 -0 -0 -0 -0 -0 -0 -0 -0 -0 -0 -0 -0 -0 -0 -0 -0 -0 -0 -0 -0 -0 -215 -115 -46 -126 -190 -145 -127 -133
-2 -0 -1 -4 -3 -0 -0 -0 -0 -0 -0 -0 -0 -0 -0 -0 -0 -0 -0 -0 -0 -0 -0 -0 -0 -0 -0 -0 -0 -0 -39 -54 -27 -23 -67 -196 -280 -204 -250 -200 -128 -146 -116 -104
-3 -1 -1 -1 -3 -1 -0 -0 -0 -0 -0 -0 -0 -0 -0 -0 -0 -0 -0 -0 -0 -0 -0 -0 -0 -0 -0 -0 -0 -0 -0 -0 -59 -80 -142 -134 -152 -159 -161 -151 -110 -126 -110 -95
-0 -2 -2 -2 -0 -0 -0 -0 -0 -0 -0 -0 -0 -0 -0 -0 -0 -0 -0 -0 -0 -0 -0 -0 -0 -0 -0 -0 -0 -0 -0 -0 -86 -0 -63 -44 -173 -131 -124 -199 -252 -262 -222 -149
-0 -3 -13 -0 -0 -0 -0 -0 -0 -0 -0 -0 -0 -0 -0 -0 -0 -0 -0 -0 -0 -0 -0 -0 -0 -0 -0 -0 -0 -0 -0 -0 -0 -0 -65 -111 -121 -181 -71 -202 -233 -78 -0 -0
-1 -0 -0 -0 -0 -0 -0 -0 -0 -0 -0 -0 -0 -0 -0 -0 -0 -0 -0 -0 -0 -0 -0 -0 -0 -0 -0 -0 -0 -0 -0 -0 -0 -0 -0 -0 -0 -0 -0 -0 -0 -0 -0 -0
-0 -5 -11 -11 -0 -0 -0 -0 -0 -0 -0 -0 -0 -0 -0 -0 -0 -0 -0 -0 -0 -0 -0 -0 -0 -0 -0 -0 -0 -0 -0 -0 -0 -0 -0 -0 -0 -0 -0 -0 -0 -0 -0 -0
-0 -0 -0 -0 -0 -0 -0 -0 -0 -0 -0 -0 -0 -0 -0 -0 -0 -0 -0 -0 -0 -0 -0 -0 -0 -0 -0 -0 -0 -0 -0 -0 -0 -0 -0 -0 -0 -0 -0 -0 -0 -0 -0 -0
-0 -0 -0 -0 -0 -17 -3 -0 -0 -0 -0 -1 -2 -0 -0 -0 -0 -0 -0 -0 -0 -0 -0 -0 -0 -0 -0 -0 -0 -0 -0 -0 -0 -0 -0 -0 -0 -0 -0 -0 -0 -0 -0 -0
-5 -9 -0 -12 -0 -0 -51 -0 -1 -0 -0 -0 -9 -0 -0 -0 -0 -0 -0 -0 -0 -0 -0 -0 -0 -0 -0 -0 -0 -0 -0 -0 -0 -0 -0 -0 -0 -0 -0 -0 -0 -0 -0 -0
-7 -5 -12 -0 -10 -21 -5 -1 -1 -5 -0 -1 -5 -18 -0 -0 -0 -0 -0 -0 -0 -0 -0 -0 -0 -0 -0 -0 -0 -0 -0 -0 -0 -0 -0 -0 -0 -0 -0 -0 -0 -0 -0 -0
-2 -0 -0 -16 -1 -4 -0 -0 -1 -2 -2 -5 -2 -0 -0 -0 -0 -0 -0 -0 -0 -0 -0 -0 -0 -0 -0 -0 -0 -0 -0 -0 -0 -0 -0 -0 -0 -0 -0 -0 -0 -0 -0 -0
-4 -5 -0 -9 -10 -1 -0 -0 -0 -0 -0 -2 -27 -0 -0 -0 -0 -0 -0 -0 -38 -0 -0 -0 -0 -0 -0 -0 -0 -0 -0 -0 -0 -0 -0 -0 -0 -0 -0 -0 -0 -0 -0 -0
-0 -0 -2 -10 -1 -0 -0 -0 -1 -2 -0 -0 -25 -48 -3 -7 -0 -0 -0 -0 -0 -34 -24 -16 -0 -0 -0 -0 -0 -0 -0 -0 -0 -0 -0 -0 -0 -0 -0 -0 -0 -0 -0 -0
-6 -1 -0 -0 -11 -0 -0 -0 -0 -0 -25 -0 -3 -7 -4 -11 -8 -10 -10 -7 -0 -14 -0 -0 -0 -0 -0 -0 -0 -0 -0 -0 -0 -0 -0 -0 -0 -0 -0 -0 -0 -0 -0 -0
-0 -0 -0 -2 -19 -17 -24 -40 -0 -0 -0 -4 -6 -1 -0 -0 -7 -3 -1 -2 -1 -0 -0 -0 -0 -0 -0 -0 -0 -0 -0 -0 -0 -0 -0 -0 -0 -0 -0 -0 -0 -0 -0 -0
-0 -1 -12 -5 -12 -13 -13 -60 -12 -16 -14 -4 -1 -0 -0 -0 -1 -6 -1 -1 -0 -0 -0 -0 -0 -0 -0 -0 -0 -0 -0 -0 -0 -0 -0 -0 -0 -0 -0 -0 -0 -0 -0 -0
Wind_Speed
32 32 32 30 30 28 17 14 14 13 12 15 10 21 13 9 9 8 8 9 11 13 15 16 15 13 13 14 11 13 15 16 17 16 16 16 16 15 11 14 12 15 17 17
31 31 31 30 30 26 17 13 14 13 13 15 17 14 7 8 10 11 10 11 10 10 14 14 15 15 11 12 13 12 14 16 14 13 13 12 13 14 11 10 10 9 14 15
30 30 31 30 29 26 16 17 14 14 12 11 10 12 11 15 14 13 13 11 11 11 11 12 13 13 12 12 13 12 13 15 17 19 17 16 14 15 8 14 11 10 14 11
30 30 30 30 30 25 16 17 15 16 14 13 12 13 15 13 15 15 16 15 14 13 15 14 13 13 13 11 14 14 16 16 17 16 19 21 20 19 20 20 20 15 13 9
30 29 29 29 29 24 16 17 19 18 17 17 15 16 17 17 17 16 18 17 17 15 14 16 17 16 15 15 16 14 16 16 16 15 18 17 16 18 17 19 18 16 9 9
30 29 28 27 27 22 16 17 18 20 19 17 16 18 18 18 5 17 16 16 17 18 18 21 22 21 21 19 17 17 17 16 17 16 19 18 16 19 20 19 15 14 11 9
30 29 28 27 25 22 18 18 18 19 19 18 17 17 18 17 17 14 16 16 17 18 23 22 21 22 22 21 19 18 15 14 16 19 21 18 16 18 18 15 12 11 10 9
31 30 28 27 25 24 19 19 18 18 17 18 17 17 18 17 17 15 15 17 18 21 19 19 19 20 19 21 20 17 16 16 19 22 21 23 18 17 16 15 13 12 9 9
32 31 30 28 26 25 21 19 19 18 19 15 17 19 18 17 18 17 16 17 18 18 17 16 17 14 16 14 16 17 15 17 20 19 23 24 19 19 20 17 16 12 10 7
34 33 31 29 27 25 23 21 19 19 21 19 16 15 19 16 17 19 19 20 18 19 17 16 15 15 15 12 12 11 12 16 17 17 23 22 22 22 20 15 18 16 9 6
34 33 32 31 28 26 24 23 20 20 21 25 18 19 16 15 16 19 19 19 16 17 16 15 14 14 13 12 13 12 13 13 15 16 19 22 18 20 19 19 19 15 9 5
35 34 33 31 28 26 25 24 20 22 22 23 20 22 23 17 17 19 17 17 18 16 15 14 14 15 13 12 13 13 14 16 16 16 16 18 19 21 21 18 15 15 8 6
35 33 32 30 27 26 24 26 25 23 25 28 27 26 21 19 7 3 12 14 14 13 14 14 14 17 15 14 14 14 15 14 16 16 15 16 17 13 12 12 11 11 10 7
31 29 27 26 26 26 25 26 23 23 24 26 23 20 22 18 15 5 2 15 11 11 13 16 16 17 15 17 17 18 17 15 17 19 18 18 17 12 10 13 13 13 12 10
30 27 26 26 27 27 27 27 25 23 23 23 23 29 22 18 13 14 6 5 11 13 14 16 18 16 16 19 20 22 17 20 18 19 16 15 15 11 11 11 8 9 10 10
29 28 27 27 27 27 25 28 24 23 22 26 27 24 21 17 13 12 8 8 12 14 13 15 16 17 18 19 19 21 21 20 21 21 15 16 19 19 14 3 5 7 9 12
29 28 28 28 27 26 28 27 21 18 20 25 28 27 21 18 14 12 12 11 15 15 15 15 14 15 17 20 20 19 19 23 22 19 17 20 19 22 21 6 4 6 11 14
29 29 29 29 30 30 31 26 25 21 23 24 29 28 24 17 18 16 14 14 16 18 18 16 17 15 19 22 19 20 22 24 23 22 22 28 29 27 22 6 4 4 8 10
27 27 29 27 26 28 26 18 18 21 26 29 30 31 28 19 20 18 16 15 21 19 23 22 16 19 22 20 20 17 18 19 21 23 23 21 23 24 19 6 3 2 4 6
23 22 25 28 24 22 22 23 27 28 29 31 34 26 27 21 21 21 19 19 22 26 26 19 26 27 20 20 19 20 22 23 23 23 20 19 19 16 13 3 1 1 2 4
19 22 25 23 21 21 23 28 31 30 34 33 34 31 30 20 24 23 21 23 22 30 28 25 30 33 25 24 25 24 25 25 25 25 28 26 22 18 17 16 9 5 3 2
18 20 21 21 23 24 28 29 27 30 35 28 31 29 26 23 19 22 22 26 25 31 21 28 35 28 22 22 22 21 22 22 23 23 24 25 26 24 21 20 18 8 4 4
17 18 21 21 25 31 32 33 30 29 24 23 22 23 22 23 23 24 24 29 32 21 27 32 29 23 22 22 21 21 22 22 22 21 22 22 24 24 23 22 18 12 8 6
17 20 25 26 28 30 30 31 28 25 23 19 18 17 18 20 23 24 30 28 24 32 34 33 22 21 21 21 21 21 22 23 23 23 22 22 22 23 24 22 20 14 12 9
17 19 25 29 27 25 26 27 28 25 22 19 18 18 19 20 22 26 27 29 33 32 31 25 20 19 19 21 21 21 22 23 23 24 25 25 25 24 24 24 22 19 18 12
17 20 22 22 25 26 25 27 29 25 24 23 20 18 20 21 23 24 31 32 32 29 22 17 17 19 19 21 23 24 24 24 25 26 27 27 28 29 30 30 26 23 19 16
21 24 25 23 22 25 23 22 23 24 22 23 19 24 20 19 21 23 22 28 22 15 15 16 17 19 20 21 23 25 25 26 27 28 28 28 29 32 34 35 32 29 23 19
Wind_Direction
318 321 323 323 324 322 334 326 5 246 191 62 193 104 167 224 228 257 289 287 265 246 233 233 236 239 245 244 244 246 262 277 273 284 296 305 304 302 320 314 342 319 333 10
315 318 322 322 323 322 290 325 312 277 241 26 34 172 179 294 315 322 278 303 303 272 234 233 233 236 268 247 250 264 256 264 286 292 300 331 317 308 338 17 32 27 343 5
312 316 319 321 321 316 313 277 307 303 316 264 320 334 270 145 307 326 326 295 305 285 270 272 243 252 276 267 260 265 269 278 272 272 277 280 302 299 349 290 333 15 341 12
311 313 317 320 322 313 314 285 288 268 283 297 326 316 311 301 264 288 310 300 309 290 256 251 263 274 272 293 291 290 279 293 295 294 272 257 251 258 194 243 235 306 341 18
308 310 315 319 322 314 330 277 263 265 279 279 314 322 314 326 302 257 269 290 284 282 286 262 255 261 267 274 280 283 286 294 297 305 286 286 288 284 297 280 288 296 7 335
303 307 311 317 322 321 316 296 271 253 271 283 301 293 278 309 352 323 306 273 286 279 285 271 264 266 264 276 286 290 294 302 296 297 294 288 293 291 288 294 295 301 321 336
298 301 305 310 317 324 307 305 276 270 276 281 297 293 292 302 310 24 321 306 278 278 271 274 278 270 270 274 283 291 310 322 313 288 286 289 299 290 275 292 312 333 347 53
291 294 297 301 307 311 304 305 298 290 289 281 288 289 291 296 318 346 341 323 292 288 298 277 274 273 277 278 285 291 298 301 285 282 282 271 288 291 292 293 312 325 358 33
289 289 290 293 298 304 303 301 306 300 287 304 300 280 288 302 307 321 339 339 321 325 304 296 278 294 287 296 289 289 294 293 284 288 266 261 279 276 272 281 293 312 334 24
286 286 285 286 289 294 296 293 304 297 285 293 303 311 301 318 318 308 306 304 322 321 309 297 288 288 286 306 307 302 294 289 292 293 257 262 266 260 263 279 289 297 338 31
284 284 283 283 285 288 288 285 294 294 291 282 302 299 310 317 317 308 311 311 328 323 321 302 304 302 301 304 302 296 290 293 291 293 279 266 274 260 268 275 291 314 345 34
281 281 279 280 282 285 286 280 292 294 288 289 300 293 288 301 310 310 319 312 311 323 330 328 315 300 308 309 300 305 296 286 287 288 302 282 267 260 268 286 315 312 342 2
282 280 276 277 280 282 282 278 283 289 287 287 287 287 295 298 303 179 319 325 329 330 326 323 320 289 295 297 300 302 297 301 292 295 299 292 284 304 309 333 340 337 351 42
284 282 278 277 277 279 279 276 281 282 285 284 289 302 290 296 302 310 256 313 332 339 329 308 304 293 305 291 295 289 292 296 292 285 288 283 282 312 334 312 321 341 351 7
283 281 278 277 277 278 277 275 276 276 276 283 289 287 290 295 291 296 282 279 310 320 318 308 296 302 301 293 289 285 292 281 286 292 294 296 300 317 327 329 14 22 23 10
281 280 278 277 277 278 274 269 274 269 275 279 280 290 290 295 289 291 282 272 293 305 313 309 305 297 294 292 295 288 282 278 277 282 293 292 292 296 314 13 7 13 9 0
279 278 278 275 275 272 260 266 275 277 269 275 277 279 284 286 287 286 285 280 285 291 297 300 305 304 292 288 291 297 287 273 279 283 290 288 296 290 290 324 351 359 349 355
279 277 275 277 274 270 263 267 267 268 267 272 270 273 278 284 274 274 280 276 279 281 284 291 290 298 288 284 293 291 286 274 277 280 287 270 271 281 287 320 339 8 5 14
282 278 276 274 266 261 264 267 271 264 263 265 265 264 270 282 275 274 275 276 272 283 272 276 282 281 278 283 289 293 296 293 283 281 287 293 283 271 285 308 316 36 28 49
284 277 266 260 264 273 270 264 259 260 261 262 261 265 267 277 272 268 268 275 271 270 268 273 268 272 279 281 286 291 292 290 289 285 292 301 297 289 294 281 254 158 94 105
286 269 262 270 277 264 261 256 251 253 257 258 254 254 260 277 270 268 270 272 271 267 266 261 266 265 268 277 281 287 290 289 288 285 277 278 289 296 297 295 291 286 291 165
287 281 277 270 259 255 254 253 257 257 254 261 249 246 255 265 276 271 269 267 268 268 264 260 261 265 269 276 281 286 289 291 291 292 288 284 279 284 291 297 298 291 247 227
289 278 265 259 253 249 247 247 251 256 264 259 257 249 255 259 262 265 267 262 259 269 260 262 264 263 266 272 279 284 288 291 295 298 298 295 291 289 286 287 295 298 295 290
277 268 255 252 249 249 249 249 254 264 264 263 254 249 259 258 251 258 256 260 262 259 257 257 263 264 267 273 280 285 288 290 291 293 298 299 297 294 293 291 289 291 292 299
276 270 259 253 255 260 259 259 257 262 269 262 252 261 264 254 259 253 255 256 256 259 258 262 261 269 273 275 280 283 287 290 292 292 291 293 295 297 297 299 292 288 290 291
281 266 265 260 255 257 260 257 254 261 261 262 263 260 263 256 257 256 249 253 256 258 262 261 269 273 279 279 281 284 287 287 290 293 293 291 290 291 292 294 294 290 284 285
270 258 259 262 262 254 260 266 258 260 253 256 255 247 255 270 258 252 265 256 254 257 263 270 276 278 282 285 285 285 285 286 288 293 296 294 295 293 291 288 288 286 283 280